Retour au catalogue

FENGYUN 2G

ActifMétéoGEO
NORAD 40367·PAYLOAD·🇨🇳 China

Lancé Dec 31, 2014 depuis Xichang Satellite Launch Center

Loading…

TLE

FraisSource: Space-Track

Époque: Sep 14, 2026, 12:33 UTC

1 40367U 14090A   26257.52356869 -.00000310  00000-0  00000-0 0  9995
2 40367   5.8593  71.6952 0003765 186.9465  23.1020  1.00273849 42897

Suivez FENGYUN 2G en temps réel avec AllMySat

Download on the App Store